Hourly Weather Smykovo

Today, 21 January, Thursday

Time Temperature Precipitation Wind Pressure Humidity
00:00 -18°C° 0 mm 3 mps 753 mmHg 95%
01:00 -19°C° 0 mm 3 mps 753 mmHg 95%
02:00 -19°C° 0 mm 3 mps 753 mmHg 95%
03:00 -19°C° 0 mm 3 mps 753 mmHg 98%
04:00 -21°C° 0 mm 3 mps 753 mmHg 97%
05:00 -21°C° 0 mm 3 mps 753 mmHg 95%
06:00 -21°C° 0 mm 3 mps 754 mmHg 94%
07:00 -21°C° 0 mm 3 mps 754 mmHg 92%
08:00 -21°C° 0 mm 3 mps 753 mmHg 90%
09:00 -22°C° 0 mm 4 mps 753 mmHg 88%
10:00 -20°C° 0 mm 4 mps 753 mmHg 88%
11:00 -19°C° 0 mm 4 mps 753 mmHg 88%
12:00 -19°C° 0 mm 5 mps 753 mmHg 88%
13:00 -19°C° 0 mm 5 mps 752 mmHg 89%
14:00 -18°C° 0 mm 5 mps 751 mmHg 89%
15:00 -18°C° 0 mm 6 mps 750 mmHg 89%
16:00 -17°C° 0.5 mm 6 mps 750 mmHg 91%
17:00 -17°C° 0.5 mm 6 mps 749 mmHg 92%
18:00 -16°C° 0.5 mm 6 mps 749 mmHg 93%
19:00 -15°C° 0.2 mm 5 mps 749 mmHg 94%
20:00 -14°C° 0.2 mm 5 mps 748 mmHg 94%
21:00 -14°C° 0.2 mm 4 mps 748 mmHg 94%
22:00 -12°C° 0.1 mm 3 mps 748 mmHg 94%
23:00 -12°C° 0.1 mm 3 mps 748 mmHg 95%

Tomorrow, 22 January, Friday

Time Temperature Precipitation Wind Pressure Humidity
00:00 -9°C° 0.1 mm 2 mps 748 mmHg 95%
01:00 -9°C° 0.1 mm 2 mps 748 mmHg 96%
02:00 -8°C° 0.1 mm 2 mps 748 mmHg 96%
03:00 -8°C° 0.1 mm 2 mps 748 mmHg 96%
04:00 -7°C° 0.1 mm 2 mps 748 mmHg 96%
05:00 -6°C° 0.1 mm 2 mps 748 mmHg 96%
06:00 -5°C° 0.1 mm 2 mps 747 mmHg 97%
07:00 -4°C° 0.1 mm 2 mps 748 mmHg 96%
08:00 -4°C° 0.1 mm 3 mps 748 mmHg 95%
09:00 -2°C° 0.1 mm 3 mps 748 mmHg 95%
10:00 -2°C° 0 mm 4 mps 748 mmHg 96%
11:00 -2°C° 0 mm 4 mps 748 mmHg 97%
12:00 -1°C° 0 mm 4 mps 748 mmHg 98%
13:00 -1°C° 0 mm 4 mps 748 mmHg 97%
14:00 -1°C° 0 mm 5 mps 748 mmHg 97%
15:00 -1°C° 0 mm 5 mps 748 mmHg 96%
16:00 -1°C° 0 mm 4 mps 748 mmHg 96%
17:00 -1°C° 0 mm 4 mps 748 mmHg 95%
18:00 -1°C° 0 mm 4 mps 748 mmHg 94%
19:00 -2°C° 0 mm 4 mps 748 mmHg 94%
20:00 -2°C° 0 mm 4 mps 748 mmHg 94%
21:00 -2°C° 0 mm 4 mps 748 mmHg 95%
22:00 -2°C° 0 mm 4 mps 748 mmHg 95%
23:00 -2°C° 0 mm 4 mps 748 mmHg 94%

Day after tomorrow, 23 January, Saturday

Time Temperature Precipitation Wind Pressure Humidity
00:00 -2°C° 0 mm 4 mps 748 mmHg 94%
01:00 -1°C° 0 mm 4 mps 748 mmHg 94%
02:00 -1°C° 0 mm 4 mps 748 mmHg 95%
03:00 -1°C° 0 mm 5 mps 747 mmHg 95%
04:00 -1°C° 0 mm 5 mps 747 mmHg 95%
05:00 -1°C° 0 mm 5 mps 747 mmHg 96%
06:00 -1°C° 0 mm 5 mps 747 mmHg 97%
07:00 -1°C° 0 mm 5 mps 748 mmHg 97%
08:00 -1°C° 0 mm 5 mps 748 mmHg 97%
09:00 -1°C° 0 mm 5 mps 748 mmHg 97%
10:00 -1°C° 0 mm 5 mps 748 mmHg 98%
11:00 -1°C° 0 mm 5 mps 748 mmHg 99%
12:00 -1°C° 0 mm 5 mps 748 mmHg 99%
13:00 -1°C° 0 mm 5 mps 748 mmHg 99%
14:00 -1°C° 0 mm 5 mps 748 mmHg 99%
15:00 -1°C° 0 mm 5 mps 748 mmHg 99%
16:00 -1°C° 0 mm 5 mps 748 mmHg 99%
17:00 -1°C° 0 mm 4 mps 748 mmHg 98%
18:00 -1°C° 0 mm 4 mps 749 mmHg 97%
19:00 -1°C° 0 mm 4 mps 749 mmHg 97%
20:00 -1°C° 0 mm 4 mps 749 mmHg 98%
21:00 -1°C° 0 mm 4 mps 749 mmHg 98%
22:00 -1°C° 0 mm 4 mps 749 mmHg 98%
23:00 -1°C° 0 mm 4 mps 749 mmHg 98%

24 January, Sunday

Time Temperature Precipitation Wind Pressure Humidity
00:00 -1°C° 0 mm 4 mps 749 mmHg 98%
01:00 -1°C° 0 mm 4 mps 749 mmHg 98%
02:00 -1°C° 0 mm 4 mps 749 mmHg 99%
03:00 -1°C° 0 mm 4 mps 749 mmHg 99%
04:00 -1°C° 0.1 mm 4 mps 749 mmHg 98%
05:00 -1°C° 0.1 mm 4 mps 749 mmHg 98%
06:00 -1°C° 0.1 mm 4 mps 749 mmHg 98%
07:00 -1°C° 0 mm 4 mps 749 mmHg 97%
08:00 -1°C° 0 mm 4 mps 749 mmHg 97%
09:00 -1°C° 0 mm 4 mps 749 mmHg 97%
10:00 -1°C° 0 mm 4 mps 749 mmHg 98%
11:00 -1°C° 0 mm 4 mps 749 mmHg 98%
12:00 -1°C° 0 mm 5 mps 749 mmHg 99%
13:00 -1°C° 0 mm 5 mps 749 mmHg 99%
14:00 -1°C° 0 mm 5 mps 749 mmHg 99%
15:00 -1°C° 0 mm 5 mps 749 mmHg 99%
16:00 -1°C° 0.1 mm 5 mps 749 mmHg 99%
17:00 -1°C° 0.1 mm 5 mps 749 mmHg 99%
18:00 -1°C° 0.1 mm 5 mps 750 mmHg 98%
19:00 -1°C° 0.4 mm 5 mps 750 mmHg 98%
20:00 -1°C° 0.4 mm 5 mps 750 mmHg 98%
21:00 -1°C° 0.4 mm 5 mps 750 mmHg 98%
22:00 -1°C° 0.2 mm 5 mps 750 mmHg 97%
23:00 -2°C° 0.2 mm 6 mps 750 mmHg 95%

25 January, Monday

Time Temperature Precipitation Wind Pressure Humidity
00:00 -2°C° 0.2 mm 6 mps 750 mmHg 93%
01:00 -2°C° 0 mm 6 mps 750 mmHg 92%
02:00 -3°C° 0 mm 6 mps 750 mmHg 90%
03:00 -3°C° 0 mm 6 mps 750 mmHg 88%
04:00 -3°C° 0 mm 6 mps 749 mmHg 89%
05:00 -3°C° 0 mm 6 mps 749 mmHg 90%
06:00 -3°C° 0 mm 6 mps 749 mmHg 90%
07:00 -4°C° 0 mm 6 mps 749 mmHg 90%
08:00 -4°C° 0 mm 6 mps 749 mmHg 91%
09:00 -4°C° 0 mm 6 mps 749 mmHg 91%
10:00 -4°C° 0 mm 6 mps 749 mmHg 92%
11:00 -4°C° 0 mm 6 mps 749 mmHg 92%
12:00 -3°C° 0 mm 6 mps 749 mmHg 92%
13:00 -3°C° 0.6 mm 6 mps 749 mmHg 94%
14:00 -3°C° 0.6 mm 6 mps 749 mmHg 95%
15:00 -3°C° 0.6 mm 6 mps 749 mmHg 96%
16:00 -2°C° 0.1 mm 5 mps 749 mmHg 95%
17:00 -2°C° 0.1 mm 5 mps 749 mmHg 94%
18:00 -2°C° 0.1 mm 5 mps 749 mmHg 94%
19:00 -2°C° 0 mm 5 mps 749 mmHg 94%
20:00 -2°C° 0 mm 5 mps 749 mmHg 94%
21:00 -2°C° 0 mm 5 mps 749 mmHg 94%
22:00 -2°C° 0 mm 5 mps 749 mmHg 94%
23:00 -2°C° 0 mm 4 mps 748 mmHg 95%

26 January, Tuesday

Time Temperature Precipitation Wind Pressure Humidity
00:00 -2°C° 0 mm 4 mps 748 mmHg 95%
01:00 -2°C° 0 mm 4 mps 748 mmHg 95%
02:00 -2°C° 0 mm 5 mps 748 mmHg 96%
03:00 -2°C° 0 mm 5 mps 748 mmHg 96%
04:00 -2°C° 0 mm 5 mps 748 mmHg 95%
05:00 -3°C° 0 mm 6 mps 747 mmHg 95%
06:00 -4°C° 0 mm 6 mps 747 mmHg 95%
07:00 -4°C° 0 mm 7 mps 747 mmHg 94%
08:00 -3°C° 0 mm 7 mps 747 mmHg 93%
09:00 -3°C° 0 mm 7 mps 746 mmHg 92%
10:00 -3°C° 0 mm 7 mps 746 mmHg 93%
11:00 -3°C° 0 mm 7 mps 746 mmHg 93%
12:00 -2°C° 0 mm 7 mps 746 mmHg 93%
13:00 -2°C° 0 mm 7 mps 745 mmHg 93%
14:00 -2°C° 0 mm 7 mps 745 mmHg 94%
15:00 -2°C° 0 mm 7 mps 745 mmHg 94%
16:00 -2°C° 0 mm 7 mps 745 mmHg 94%
17:00 -2°C° 0 mm 7 mps 745 mmHg 95%
18:00 -2°C° 0 mm 7 mps 745 mmHg 95%
19:00 -2°C° 0 mm 7 mps 744 mmHg 96%
20:00 -2°C° 0 mm 6 mps 744 mmHg 97%
21:00 -1°C° 0 mm 6 mps 744 mmHg 98%
22:00 -1°C° 0.1 mm 6 mps 744 mmHg 98%
23:00 -2°C° 0.1 mm 6 mps 744 mmHg 98%
Show more